• In Slovakia
  • List of Countries
  • For 7 days
  • Water Temperature
  • Satellite Maps
  • Weather Map
  • Weather Widgets
  • user-avatar
    Login

    Hourly Weather Kapan

    Today, 18 October, Thursday

    Time Temperature Precipitation Wind Pressure Humidity
    00:00 +14°C° 0 mm 1 mps 688 mmHg 82%
    01:00 +13°C° 0 mm 1 mps 688 mmHg 81%
    02:00 +13°C° 0 mm 1 mps 688 mmHg 81%
    03:00 +13°C° 0 mm 1 mps 688 mmHg 81%
    04:00 +13°C° 0 mm 1 mps 688 mmHg 81%
    05:00 +12°C° 0 mm 1 mps 688 mmHg 80%
    06:00 +11°C° 0 mm 0 mps 688 mmHg 80%
    07:00 +14°C° 0 mm 1 mps 688 mmHg 71%
    08:00 +16°C° 0 mm 1 mps 688 mmHg 62%
    09:00 +19°C° 0 mm 1 mps 689 mmHg 53%
    10:00 +20°C° 0 mm 1 mps 689 mmHg 48%
    11:00 +20°C° 0 mm 2 mps 689 mmHg 44%
    12:00 +21°C° 0 mm 2 mps 689 mmHg 40%
    13:00 +21°C° 0 mm 2 mps 688 mmHg 40%
    14:00 +21°C° 0 mm 2 mps 688 mmHg 40%
    15:00 +23°C° 0 mm 2 mps 688 mmHg 40%
    16:00 +20°C° 0 mm 2 mps 688 mmHg 48%
    17:00 +18°C° 0 mm 2 mps 687 mmHg 55%
    18:00 +18°C° 0 mm 1 mps 687 mmHg 63%
    19:00 +16°C° 0 mm 1 mps 687 mmHg 67%
    20:00 +15°C° 0 mm 1 mps 687 mmHg 70%
    21:00 +15°C° 0 mm 1 mps 688 mmHg 74%
    22:00 +15°C° 0 mm 1 mps 688 mmHg 76%
    23:00 +14°C° 0 mm 1 mps 688 mmHg 77%

    Tomorrow, 19 October, Friday

    Time Temperature Precipitation Wind Pressure Humidity
    00:00 +14°C° 0 mm 1 mps 687 mmHg 79%
    01:00 +14°C° 0 mm 1 mps 687 mmHg 79%
    02:00 +13°C° 0 mm 1 mps 687 mmHg 80%
    03:00 +13°C° 0 mm 1 mps 687 mmHg 80%
    04:00 +13°C° 0 mm 1 mps 687 mmHg 80%
    05:00 +13°C° 0 mm 1 mps 687 mmHg 79%
    06:00 +12°C° 0 mm 1 mps 687 mmHg 79%
    07:00 +14°C° 0 mm 1 mps 688 mmHg 70%
    08:00 +16°C° 0 mm 1 mps 688 mmHg 61%
    09:00 +19°C° 0 mm 1 mps 689 mmHg 52%
    10:00 +20°C° 0 mm 1 mps 689 mmHg 47%
    11:00 +20°C° 0 mm 2 mps 689 mmHg 42%
    12:00 +21°C° 0 mm 2 mps 689 mmHg 38%
    13:00 +21°C° 0 mm 2 mps 688 mmHg 37%
    14:00 +23°C° 0 mm 2 mps 688 mmHg 37%
    15:00 +23°C° 0 mm 2 mps 687 mmHg 37%
    16:00 +20°C° 0 mm 2 mps 687 mmHg 45%
    17:00 +19°C° 0 mm 1 mps 687 mmHg 53%
    18:00 +18°C° 0 mm 1 mps 687 mmHg 61%
    19:00 +16°C° 0 mm 1 mps 687 mmHg 63%
    20:00 +16°C° 0 mm 1 mps 687 mmHg 65%
    21:00 +14°C° 0 mm 0 mps 687 mmHg 68%
    22:00 +14°C° 0 mm 0 mps 687 mmHg 67%
    23:00 +15°C° 0 mm 1 mps 687 mmHg 66%

    Day after tomorrow, 20 October, Saturday

    Time Temperature Precipitation Wind Pressure Humidity
    00:00 +15°C° 0 mm 1 mps 687 mmHg 65%
    01:00 +14°C° 0 mm 1 mps 686 mmHg 64%
    02:00 +14°C° 0 mm 1 mps 686 mmHg 62%
    03:00 +14°C° 0 mm 1 mps 686 mmHg 61%
    04:00 +14°C° 0 mm 1 mps 686 mmHg 60%
    05:00 +14°C° 0 mm 1 mps 686 mmHg 59%
    06:00 +13°C° 0 mm 1 mps 686 mmHg 59%
    07:00 +16°C° 0 mm 1 mps 686 mmHg 53%
    08:00 +19°C° 0 mm 1 mps 687 mmHg 47%
    09:00 +21°C° 0 mm 1 mps 688 mmHg 41%
    10:00 +21°C° 0 mm 2 mps 687 mmHg 38%
    11:00 +23°C° 0 mm 2 mps 687 mmHg 35%
    12:00 +24°C° 0 mm 2 mps 687 mmHg 32%
    13:00 +24°C° 0 mm 2 mps 687 mmHg 33%
    14:00 +24°C° 0 mm 2 mps 686 mmHg 33%
    15:00 +24°C° 0 mm 2 mps 686 mmHg 33%
    16:00 +21°C° 0 mm 2 mps 686 mmHg 41%
    17:00 +21°C° 0 mm 1 mps 685 mmHg 48%
    18:00 +19°C° 0 mm 1 mps 685 mmHg 56%
    19:00 +18°C° 0 mm 1 mps 685 mmHg 55%
    20:00 +18°C° 0 mm 1 mps 685 mmHg 54%
    21:00 +18°C° 0 mm 1 mps 685 mmHg 54%
    22:00 +18°C° 0 mm 1 mps 685 mmHg 52%
    23:00 +18°C° 0 mm 1 mps 685 mmHg 51%

    21 October, Sunday

    Time Temperature Precipitation Wind Pressure Humidity
    00:00 +18°C° 0 mm 1 mps 685 mmHg 49%
    01:00 +16°C° 0 mm 1 mps 685 mmHg 49%
    02:00 +16°C° 0 mm 1 mps 684 mmHg 48%
    03:00 +16°C° 0 mm 1 mps 684 mmHg 48%
    04:00 +16°C° 0 mm 1 mps 684 mmHg 49%
    05:00 +16°C° 0 mm 1 mps 684 mmHg 50%
    06:00 +15°C° 0 mm 1 mps 684 mmHg 51%
    07:00 +18°C° 0 mm 1 mps 685 mmHg 48%
    08:00 +20°C° 0 mm 1 mps 685 mmHg 44%
    09:00 +22°C° 0 mm 1 mps 686 mmHg 40%
    10:00 +23°C° 0 mm 2 mps 686 mmHg 39%
    11:00 +24°C° 0 mm 2 mps 686 mmHg 38%
    12:00 +24°C° 0 mm 2 mps 685 mmHg 37%
    13:00 +24°C° 0.1 mm 2 mps 685 mmHg 39%
    14:00 +24°C° 0.1 mm 2 mps 685 mmHg 41%
    15:00 +23°C° 0.1 mm 2 mps 684 mmHg 44%
    16:00 +21°C° 0.1 mm 2 mps 684 mmHg 49%
    17:00 +21°C° 0.1 mm 1 mps 684 mmHg 55%
    18:00 +20°C° 0.1 mm 1 mps 684 mmHg 61%
    19:00 +19°C° 0 mm 1 mps 684 mmHg 63%
    20:00 +19°C° 0 mm 1 mps 684 mmHg 66%
    21:00 +18°C° 0 mm 1 mps 684 mmHg 68%
    22:00 +18°C° 0 mm 1 mps 683 mmHg 67%
    23:00 +18°C° 0 mm 1 mps 683 mmHg 66%

    22 October, Monday

    Time Temperature Precipitation Wind Pressure Humidity
    00:00 +18°C° 0 mm 1 mps 683 mmHg 65%
    01:00 +16°C° 0 mm 1 mps 683 mmHg 65%
    02:00 +16°C° 0 mm 1 mps 683 mmHg 65%
    03:00 +16°C° 0 mm 1 mps 683 mmHg 65%
    04:00 +16°C° 0 mm 1 mps 683 mmHg 66%
    05:00 +15°C° 0 mm 1 mps 683 mmHg 67%
    06:00 +15°C° 0 mm 1 mps 683 mmHg 67%
    07:00 +17°C° 0 mm 2 mps 684 mmHg 60%
    08:00 +19°C° 0 mm 2 mps 684 mmHg 54%
    09:00 +21°C° 0 mm 2 mps 685 mmHg 47%
    10:00 +23°C° 0 mm 2 mps 685 mmHg 43%
    11:00 +24°C° 0 mm 3 mps 685 mmHg 38%
    12:00 +25°C° 0 mm 3 mps 685 mmHg 34%
    13:00 +25°C° 0 mm 3 mps 684 mmHg 33%
    14:00 +25°C° 0 mm 3 mps 684 mmHg 32%
    15:00 +25°C° 0 mm 3 mps 684 mmHg 31%
    16:00 +23°C° 0 mm 2 mps 684 mmHg 37%
    17:00 +21°C° 0 mm 2 mps 684 mmHg 43%
    18:00 +20°C° 0 mm 1 mps 684 mmHg 49%
    19:00 +19°C° 0 mm 1 mps 685 mmHg 50%
    20:00 +18°C° 0 mm 2 mps 685 mmHg 50%
    21:00 +18°C° 0 mm 2 mps 685 mmHg 51%
    22:00 +18°C° 0 mm 2 mps 685 mmHg 50%
    23:00 +17°C° 0 mm 2 mps 685 mmHg 50%

    23 October, Tuesday

    Time Temperature Precipitation Wind Pressure Humidity
    00:00 +17°C° 0 mm 2 mps 685 mmHg 49%
    01:00 +17°C° 0 mm 2 mps 685 mmHg 49%
    02:00 +17°C° 0 mm 2 mps 685 mmHg 49%
    03:00 +16°C° 0 mm 2 mps 685 mmHg 49%
    04:00 +16°C° 0 mm 2 mps 685 mmHg 50%
    05:00 +16°C° 0 mm 2 mps 686 mmHg 50%
    06:00 +16°C° 0 mm 2 mps 686 mmHg 51%
    07:00 +18°C° 0 mm 2 mps 686 mmHg 46%
    08:00 +20°C° 0 mm 2 mps 687 mmHg 40%
    09:00 +23°C° 0 mm 2 mps 687 mmHg 35%
    10:00 +24°C° 0 mm 2 mps 687 mmHg 33%
    11:00 +25°C° 0 mm 3 mps 687 mmHg 31%
    12:00 +26°C° 0 mm 3 mps 687 mmHg 29%
    13:00 +26°C° 0 mm 3 mps 686 mmHg 29%
    14:00 +26°C° 0 mm 3 mps 686 mmHg 29%
    15:00 +26°C° 0 mm 3 mps 686 mmHg 30%
    16:00 +24°C° 0 mm 2 mps 686 mmHg 34%
    17:00 +23°C° 0 mm 2 mps 686 mmHg 39%
    18:00 +21°C° 0 mm 1 mps 685 mmHg 43%
    19:00 +21°C° 0 mm 1 mps 685 mmHg 45%
    20:00 +20°C° 0 mm 1 mps 685 mmHg 46%
    21:00 +19°C° 0 mm 2 mps 685 mmHg 48%
    22:00 +19°C° 0 mm 2 mps 685 mmHg 48%
    23:00 +18°C° 0 mm 2 mps 685 mmHg 48%
    Show more